User: anonymous   Login
Location: Poughquag
(41.6090°N, 73.6820°W)
Time: 11:48:14
(UTC-04:00)
Language:

STARLINK-1337 - Orbit

View from above orbital plane
View from above orbital plane
View from above satellite
View from above satellite

Ground track
Ground track

The orbit data is extracted from the following two-line orbital elements,

1 45582U 20025BD  20221.50001157 -.01075374  00000-0 -34486-1 0  9994
2 45582  53.0011 232.4099 0001354  71.4933  45.2803 15.34590067 17555
Epoch (UTC): 08 August 2020 12:00:01
Eccentricity: 0.0001354
inclination: 53.0011°
perigee height: 461 km
apogee height: 463 km
right ascension of ascending node: 232.4099°
argument of perigee: 71.4933°
revolutions per day: 15.34590067
mean anomaly at epoch: 45.2803°
orbit number at epoch: 1755

The dashed part of the orbit path shows where the satellite is in the earth's shadow,  

DLR